QPF
0.00 0.00 0.00 0.00 0.00 0.00 0.00 0.00 0.00 0.00 0.00 0.00 0.00 0.00 0.00 0.00 0.00 0.00 0.00 0.00 0.00 0.00 0.00 0.00 0.00 0.00 0.00 0.00 0.00 0.00 0.00 0.00 0.00 0.00 0.00 0.00 0.00 0.00 0.00 0.00 0.00 0.00 0.00 0.00
0.00 0.00 0.00 0.00 0.00 0.00 0.00 0.00 0.00 0.00 0.00 0.00 0.00 0.00 0.00 0.00 0.00 0.00 0.00 0.00 0.00 0.00 0.00 0.00 0.00 0.00 0.00 0.00 0.00 0.00 0.00 0.00 0.00 0.00 0.00 0.00 0.00 0.00 0.00 0.00 0.00 0.00 0.00 0.00
0.00 0.00 0.00 0.00 0.00 0.00 0.00 0.00 0.00 0.00 0.00 0.00 0.00 0.00 0.00 0.00 0.00 0.00 0.00 0.00 0.00 0.00 0.00 0.00 0.00 0.00 0.00 0.00 0.00 0.00 0.00 0.00 0.00 0.00 0.00 0.00 0.00 0.00 0.00 0.00 0.00 0.00 0.00 0.00
0.00 0.00 0.00 0.00 0.00 0.00 0.00 0.00 0.00 0.00 0.00 0.00 0.00 0.00 0.00 0.00 0.00 0.00 0.00 0.00 0.00 0.00 0.00 0.00 0.00 0.00 0.00 0.00 0.00 0.00 0.00 0.00 0.00 0.00 0.00 0.00 0.00 0.00 0.00 0.00 0.00 0.00 0.00 0.00
0.00 0.00 0.00 0.00 0.00 0.00 0.00 0.00 0.00 0.00 0.00 0.00 0.00 0.00 0.00 0.00 0.00 0.00 0.00 0.00 0.00 0.00 0.00 0.00 0.00 0.00 0.00 0.00 0.00 0.00 0.00 0.00 0.00 0.00 0.00 0.00 0.00 0.00 0.00 0.00 0.00 0.00 0.00 0.00
0.00 0.00 0.00 0.00 0.00 0.00 0.00 0.00 0.00 0.00 0.00 0.00 0.00 0.00 0.00 0.00 0.00 0.00 0.00 0.00 0.00 0.00 0.00 0.00 0.00 0.00 0.00 0.00 0.00 0.00 0.00 0.00 0.00 0.00 0.00 0.00 0.00 0.00 0.00 0.00 0.00 0.00 0.00 0.00
0.00 0.00 0.00 0.00 0.00 0.00 0.00 0.00 0.00 0.00 0.00 0.00 0.00 0.00 0.00 0.00 0.00 0.00 0.00 0.00 0.00 0.00 0.00 0.00 0.00 0.00 0.00 0.00 0.00 0.00 0.00 0.00 0.00 0.00 0.00 0.00 0.00 0.00 0.00 0.00 0.00 0.00 0.00 0.00
0.00 0.00 0.00 0.00 0.00 0.00 0.00 0.00 0.00 0.00 0.00 0.00 0.00 0.00 0.00 0.00 0.00 0.00 0.00 0.00 0.00 0.00 0.00 0.00 0.00 0.00 0.00 0.00 0.00 0.00 0.00 0.00 0.00 0.00 0.00 0.00 0.00 0.00 0.00 0.00 0.00 0.00 0.00 0.00
0.00 0.00 0.00 0.00 0.00 0.00 0.00 0.00 0.00 0.00 0.00 0.00 0.00 0.00 0.00 0.00 0.00 0.00 0.00 0.00 0.00 0.00 0.00 0.00 0.00 0.00 0.00 0.00 0.00 0.00 0.00 0.00 0.00 0.00 0.00 0.00 0.00 0.00 0.00 0.00 0.00 0.00 0.00 0.00
0.00 0.00 0.00 0.00 0.00 0.00 0.00 0.00 0.00 0.00 0.00 0.00 0.00 0.00 0.00 0.00 0.00 0.00 0.00 0.00 0.00 0.00 0.00 0.00 0.00 0.00 0.00 0.00 0.00 0.00 0.00 0.00 0.00 0.00 0.00 0.00 0.00 0.00 0.00 0.00 0.00 0.00 0.00 0.00
0.00 0.00 0.00 0.00 0.00 0.00 0.00 0.00 0.00 0.00 0.00 0.00 0.00 0.00 0.00 0.00 0.00 0.00 0.00 0.00 0.00 0.00 0.00 0.00 0.00 0.00 0.00 0.00 0.00 0.00 0.00 0.00 0.00 0.00 0.00 0.00 0.00 0.00 0.00 0.00 0.00 0.00 0.00 0.00
0.00 0.00 0.00 0.00 0.00 0.00 0.00 0.00 0.00 0.00 0.00 0.00 0.00 0.00 0.00 0.00 0.00 0.00 0.00 0.00 0.00 0.00 0.00 0.00 0.00 0.00 0.00 0.00 0.00 0.00 0.00 0.00 0.00 0.00 0.00 0.00 0.00 0.00 0.00 0.00 0.00 0.00 0.00 0.00
0.00 0.00 0.00 0.00 0.00 0.00 0.00 0.00 0.00 0.00 0.00 0.00 0.00 0.00 0.00 0.00 0.00 0.00 0.00 0.00 0.00 0.00 0.00 0.00 0.00 0.00 0.00 0.00 0.00 0.00 0.00 0.00 0.00 0.00 0.00 0.00 0.00 0.00 0.00 0.00 0.00 0.00 0.00 0.00
0.00 0.00 0.00 0.00 0.00 0.00 0.00 0.00 0.00 0.00 0.00 0.00 0.00 0.00 0.00 0.00 0.00 0.00 0.00 0.00 0.00 0.00 0.00 0.00 0.00 0.00 0.00 0.00 0.00 0.00 0.00 0.00 0.00 0.00 0.00 0.00 0.00 0.00 0.00 0.00 0.00 0.00 0.00 0.00
0.00 0.00 0.00 0.00 0.00 0.00 0.00 0.00 0.00 0.00 0.00 0.00 0.00 0.00 0.00 0.00 0.00 0.00 0.00 0.00 0.00 0.00 0.00 0.00 0.00 0.00 0.00 0.00 0.00 0.00 0.00 0.00 0.00 0.00 0.00 0.00 0.00 0.00 0.00 0.00 0.00 0.00 0.00 0.00
0.00 0.00 0.00 0.00 0.00 0.00 0.00 0.00 0.00 0.00 0.00 0.00 0.00 0.00 0.00 0.00 0.00 0.00 0.00 0.00 0.00 0.00 0.00 0.00 0.00 0.00 0.00 0.00 0.00 0.00 0.00 0.00 0.00 0.00 0.00 0.00 0.00 0.00 0.00 0.00 0.00 0.00 0.00 0.00
0.00 0.00 0.00 0.00 0.00 0.00 0.00 0.00 0.00 0.00 0.00 0.00 0.00 0.00 0.00 0.00 0.00 0.00 0.00 0.00 0.00 0.00 0.00 0.00 0.00 0.00 0.00 0.00 0.00 0.00 0.00 0.00 0.00 0.00 0.00 0.00 0.00 0.00 0.00 0.00 0.00 0.00 0.00 0.00
0.00 0.00 0.00 0.00 0.00 0.00 0.00 0.00 0.00 0.00 0.00 0.00 0.00 0.00 0.00 0.00 0.00 0.00 0.00 0.00 0.00 0.00 0.00 0.00 0.00 0.00 0.00 0.00 0.00 0.00 0.00 0.00 0.00 0.00 0.00 0.00 0.00 0.00 0.00 0.00 0.00 0.00 0.00 0.00
0.00 0.00 0.00 0.00 0.00 0.00 0.00 0.00 0.00 0.00 0.00 0.00 0.00 0.00 0.00 0.00 0.00 0.00 0.00 0.00 0.00 0.00 0.00 0.00 0.00 0.00 0.00 0.00 0.00 0.00 0.00 0.00 0.00 0.00 0.00 0.00 0.00 0.00 0.00 0.00 0.00 0.00 0.00 0.00
0.00 0.00 0.01 0.00 0.00 0.00 0.00 0.00 0.00 0.00 0.00 0.00 0.00 0.00 0.00 0.00 0.00 0.00 0.00 0.00 0.00 0.00 0.00 0.00 0.00 0.00 0.00 0.00 0.00 0.00 0.00 0.00 0.00 0.00 0.00 0.00 0.00 0.00 0.00 0.00 0.00 0.00 0.00 0.00
0.00 0.00 0.00 0.00 0.00 0.00 0.00 0.00 0.00 0.00 0.00 0.00 0.00 0.00 0.00 0.00 0.00 0.00 0.00 0.00 0.00 0.00 0.00 0.00 0.00 0.00 0.00 0.00 0.00 0.00 0.00 0.00 0.00 0.00 0.00 0.00 0.00 0.00 0.00 0.00 0.00 0.00 0.00 0.00
0.00 0.00 0.00 0.00 0.00 0.00 0.00 0.00 0.00 0.00 0.00 0.00 0.00 0.00 0.00 0.00 0.00 0.00 0.00 0.00 0.00 0.00 0.00 0.00 0.00 0.00 0.00 0.00 0.00 0.00 0.00 0.00 0.00 0.00 0.00 0.00 0.00 0.00 0.00 0.00 0.00 0.00 0.00 0.00
0.00 0.00 0.00 0.00 0.00 0.00 0.00 0.00 0.00 0.00 0.00 0.00 0.00 0.00 0.00 0.00 0.00 0.00 0.00 0.00 0.00 0.00 0.00 0.00 0.00 0.00 0.00 0.00 0.00 0.00 0.00 0.00 0.00 0.00 0.00 0.00 0.00 0.00 0.00 0.00 0.00 0.00 0.00 0.00
0.00 0.00 0.00 0.00 0.00 0.00 0.00 0.00 0.00 0.00 0.00 0.00 0.00 0.00 0.00 0.00 0.00 0.00 0.00 0.00 0.00 0.00 0.00 0.00 0.00 0.00 0.00 0.00 0.00 0.00 0.00 0.00 0.00 0.00 0.00 0.00 0.00 0.00 0.00 0.00 0.00 0.00 0.00 0.00
0.00 0.00 0.00 0.00 0.00 0.00 0.00 0.00 0.00 0.00 0.00 0.00 0.00 0.00 0.00 0.00 0.00 0.00 0.00 0.00 0.00 0.00 0.00 0.00 0.00 0.00 0.00 0.00 0.00 0.00 0.00 0.00 0.00 0.00 0.00 0.00 0.00 0.00 0.00 0.00 0.00 0.00 0.00 0.00
0.00 0.00 0.00 0.00 0.00 0.00 0.00 0.00 0.00 0.00 0.00 0.00 0.00 0.00 0.00 0.00 0.00 0.00 0.00 0.00 0.00 0.00 0.00 0.00 0.00 0.00 0.00 0.00 0.00 0.00 0.00 0.00 0.00 0.00 0.00 0.00 0.00 0.00 0.00 0.00 0.00 0.00 0.00 0.00
MSLP
1017.55 1017.80 1017.63 1016.43 1016.26 1015.64 1014.90 1014.69 1014.74 1015.18 1015.21 1014.84 1014.10 1013.33 1012.88 1013.06 1013.06 1012.70 1012.41 1012.38 1012.52 1012.73 1013.12 1013.70 1014.05 1014.35 1014.56 1014.76 1014.99 1015.33 1015.55 1015.82 1016.22 1016.54 1016.81 1016.98 1016.87 1016.92 1016.91 1016.90 1017.02 1017.17 1017.32 1017.51
1017.44 1016.79 1017.28 1017.61 1017.09 1016.30 1015.88 1015.52 1015.70 1016.10 1015.92 1015.47 1014.80 1013.56 1013.08 1013.20 1012.85 1012.62 1012.45 1012.41 1012.40 1012.68 1013.14 1013.46 1013.92 1014.27 1014.52 1014.65 1014.90 1015.14 1015.43 1015.66 1015.98 1016.15 1016.35 1016.40 1016.31 1016.22 1016.14 1016.22 1016.39 1016.60 1016.74 1016.92
1017.33 1017.54 1017.57 1017.70 1017.44 1016.78 1016.45 1016.27 1016.37 1016.55 1016.46 1016.18 1015.50 1013.93 1013.05 1012.91 1013.01 1012.82 1012.72 1012.59 1012.64 1012.86 1013.07 1013.51 1014.10 1014.36 1014.79 1015.05 1015.36 1015.57 1015.78 1015.85 1015.92 1016.06 1016.21 1016.44 1016.48 1016.38 1016.30 1016.27 1016.27 1016.28 1016.41 1016.57
1017.78 1017.74 1017.59 1017.59 1017.21 1016.89 1016.71 1016.74 1016.75 1016.88 1016.85 1016.30 1016.20 1014.01 1013.01 1013.00 1012.95 1012.83 1012.50 1012.60 1012.73 1013.02 1013.58 1013.85 1014.19 1014.56 1014.90 1015.49 1015.98 1016.06 1016.17 1016.21 1016.28 1016.30 1016.21 1016.12 1016.04 1015.85 1015.67 1015.89 1015.92 1015.88 1015.97 1016.08
1018.27 1018.06 1017.92 1017.55 1017.13 1016.83 1017.44 1017.51 1017.64 1017.56 1017.27 1017.02 1016.59 1015.63 1013.03 1013.43 1013.02 1012.67 1012.82 1013.06 1013.29 1013.53 1013.78 1014.08 1014.54 1014.88 1015.50 1015.94 1016.18 1016.27 1016.27 1016.46 1016.53 1016.44 1016.33 1016.15 1016.13 1015.99 1015.94 1016.05 1016.00 1015.86 1015.83 1015.90
1018.35 1018.21 1017.96 1017.77 1017.52 1017.11 1017.29 1018.17 1018.36 1018.12 1017.80 1017.26 1016.71 1016.16 1013.34 1013.46 1013.35 1013.35 1013.65 1013.89 1014.17 1014.32 1014.40 1014.79 1015.24 1015.60 1015.92 1016.28 1016.40 1016.48 1016.43 1016.61 1016.75 1016.62 1016.60 1016.50 1016.36 1016.25 1016.12 1016.02 1015.97 1015.91 1015.97 1016.12
1018.89 1018.73 1018.53 1018.10 1017.90 1017.74 1017.07 1018.45 1018.90 1018.91 1018.50 1017.51 1017.53 1016.79 1014.41 1013.95 1013.90 1014.22 1014.23 1014.43 1014.74 1015.10 1015.12 1015.30 1015.46 1015.73 1016.11 1016.37 1016.54 1016.63 1016.71 1016.83 1016.90 1016.89 1016.86 1016.85 1016.78 1016.68 1016.45 1016.27 1016.08 1016.00 1015.99 1016.22
1018.96 1018.97 1018.36 1017.97 1017.77 1017.61 1017.89 1018.24 1018.55 1018.70 1018.90 1018.36 1017.96 1016.13 1014.25 1014.27 1014.37 1014.60 1014.86 1014.85 1014.94 1015.23 1015.48 1015.75 1015.84 1015.98 1016.18 1016.52 1016.72 1016.86 1016.96 1017.13 1017.19 1017.17 1017.16 1017.10 1016.93 1016.86 1016.84 1016.70 1016.47 1016.34 1016.36 1016.51
1019.42 1019.06 1018.75 1018.40 1018.08 1018.03 1018.23 1018.17 1018.86 1019.96 1020.66 1019.57 1017.48 1016.06 1015.15 1013.91 1014.36 1014.75 1014.70 1014.92 1015.22 1015.49 1015.76 1015.86 1016.04 1016.26 1016.29 1016.43 1016.74 1016.99 1017.11 1017.30 1017.45 1017.49 1017.45 1017.51 1017.32 1017.12 1017.19 1017.18 1016.94 1016.77 1016.96 1017.14
1020.13 1019.68 1019.28 1018.74 1018.39 1018.28 1017.99 1018.60 1019.86 1020.44 1019.87 1018.92 1017.13 1016.28 1014.76 1014.12 1014.61 1014.99 1014.86 1015.04 1015.13 1015.57 1015.98 1016.03 1016.05 1016.35 1016.64 1016.72 1016.95 1017.10 1017.25 1017.36 1017.57 1017.78 1017.73 1017.81 1017.86 1017.55 1017.55 1017.58 1017.57 1017.47 1017.61 1017.63
1020.86 1020.62 1020.04 1019.19 1018.79 1018.36 1018.47 1018.26 1018.85 1019.46 1019.72 1018.70 1017.23 1015.24 1014.41 1014.28 1014.86 1015.14 1015.09 1015.11 1015.42 1015.70 1015.85 1015.88 1016.00 1016.32 1016.61 1016.85 1017.02 1017.23 1017.33 1017.51 1017.70 1017.95 1017.90 1017.94 1018.09 1017.90 1017.85 1017.90 1018.02 1018.04 1018.01 1018.00
1021.84 1021.29 1020.55 1019.83 1019.61 1019.20 1018.49 1018.70 1018.74 1019.20 1019.75 1019.19 1018.01 1015.23 1014.22 1014.43 1014.94 1015.10 1014.95 1015.10 1015.50 1015.96 1015.98 1015.90 1016.11 1016.41 1016.58 1016.70 1016.95 1017.11 1017.25 1017.36 1017.52 1017.85 1017.96 1017.90 1018.05 1018.13 1018.18 1018.19 1018.28 1018.41 1018.36 1018.44
1022.34 1021.77 1021.08 1020.81 1020.65 1020.06 1019.80 1019.71 1019.63 1019.85 1019.94 1018.72 1017.85 1015.19 1014.87 1014.84 1014.80 1014.98 1015.18 1015.41 1015.82 1015.99 1016.00 1016.07 1016.22 1016.31 1016.44 1016.66 1016.84 1016.84 1016.94 1017.12 1017.38 1017.71 1017.73 1017.89 1018.09 1018.24 1018.26 1018.34 1018.50 1018.54 1018.58 1018.72
1022.59 1022.60 1022.23 1021.72 1021.45 1021.32 1020.72 1020.33 1020.13 1019.83 1019.43 1018.46 1016.67 1015.55 1015.09 1014.40 1014.58 1014.66 1015.11 1015.49 1015.63 1015.84 1015.92 1015.93 1015.98 1016.00 1016.22 1016.43 1016.42 1016.54 1016.70 1016.84 1017.13 1017.43 1017.68 1017.93 1018.07 1018.23 1018.37 1018.57 1018.67 1018.74 1018.86 1019.04
1022.76 1022.92 1022.87 1022.27 1021.98 1021.84 1021.17 1020.71 1020.43 1019.94 1019.24 1018.56 1016.21 1015.65 1015.24 1015.10 1015.02 1014.79 1014.84 1015.21 1015.42 1015.45 1015.60 1015.73 1015.82 1015.79 1015.94 1016.11 1016.14 1016.33 1016.50 1016.80 1017.12 1017.43 1017.75 1017.91 1018.13 1018.38 1018.56 1018.78 1018.93 1019.09 1019.29 1019.48
1023.41 1023.56 1023.67 1023.13 1022.59 1022.10 1021.43 1020.57 1020.07 1019.43 1018.96 1017.96 1017.13 1015.13 1015.50 1015.14 1014.99 1014.99 1015.01 1015.09 1014.99 1014.60 1014.56 1015.38 1015.59 1015.71 1015.76 1015.79 1015.91 1016.31 1016.61 1016.88 1017.18 1017.45 1017.62 1017.85 1018.15 1018.43 1018.65 1018.92 1019.17 1019.33 1019.51 1019.68
1023.82 1024.17 1024.34 1023.76 1023.46 1022.79 1022.00 1020.52 1019.76 1018.85 1018.32 1017.61 1016.67 1014.67 1014.97 1014.92 1014.88 1014.80 1014.62 1014.44 1014.17 1014.17 1014.46 1014.75 1014.94 1015.13 1015.30 1015.42 1015.75 1016.18 1016.50 1016.81 1017.12 1017.39 1017.63 1017.84 1018.12 1018.32 1018.58 1018.97 1019.29 1019.46 1019.66 1019.94
1023.92 1024.35 1024.41 1024.46 1024.20 1023.05 1020.78 1020.23 1019.51 1018.85 1017.96 1017.37 1016.50 1015.08 1014.94 1015.00 1014.98 1014.66 1014.37 1014.39 1014.19 1014.08 1014.00 1014.03 1014.11 1014.21 1014.58 1015.14 1015.64 1016.06 1016.44 1016.75 1017.08 1017.42 1017.67 1018.01 1018.14 1018.25 1018.61 1018.99 1019.23 1019.47 1019.69 1019.90
1023.80 1024.04 1024.43 1024.49 1023.93 1022.48 1020.86 1019.18 1018.91 1018.45 1017.12 1016.26 1015.88 1015.25 1015.41 1015.57 1015.35 1014.34 1014.29 1014.26 1013.96 1013.76 1013.57 1013.63 1013.72 1013.89 1014.49 1015.04 1015.49 1015.99 1016.47 1016.75 1017.10 1017.46 1017.76 1018.02 1018.22 1018.43 1018.74 1019.01 1019.24 1019.55 1019.77 1020.06
1024.04 1023.99 1024.20 1024.49 1023.43 1021.84 1019.71 1018.92 1018.53 1018.51 1017.10 1016.39 1016.01 1015.75 1015.84 1015.88 1015.36 1014.28 1014.57 1014.42 1014.17 1014.00 1013.91 1013.80 1013.73 1014.00 1014.48 1014.99 1015.53 1016.05 1016.50 1016.94 1017.50 1017.76 1018.12 1018.51 1018.76 1018.87 1018.96 1019.17 1019.51 1019.85 1020.10 1020.35
1024.27 1023.96 1023.42 1023.13 1022.45 1021.22 1018.70 1018.71 1018.81 1018.36 1016.56 1016.38 1016.33 1016.22 1016.18 1016.03 1015.74 1015.01 1014.70 1014.58 1014.27 1014.17 1014.22 1013.88 1014.02 1014.13 1014.55 1015.28 1015.80 1016.29 1016.77 1017.29 1017.74 1018.12 1018.57 1018.90 1019.07 1019.16 1019.18 1019.40 1019.73 1019.95 1020.30 1020.70
1022.75 1022.90 1022.44 1022.27 1021.53 1020.19 1018.00 1018.67 1018.30 1016.63 1016.47 1016.55 1016.44 1016.32 1016.22 1015.99 1015.78 1015.37 1014.98 1014.85 1014.54 1014.30 1014.60 1014.65 1014.57 1014.74 1015.41 1015.91 1016.28 1016.77 1017.23 1017.80 1018.10 1018.51 1018.94 1019.31 1019.45 1019.55 1019.68 1019.87 1020.17 1020.46 1020.73 1021.04
1021.73 1020.29 1020.36 1020.35 1018.84 1017.63 1017.60 1016.98 1016.68 1016.64 1016.53 1016.46 1016.42 1016.10 1016.11 1015.91 1015.63 1015.49 1015.22 1015.32 1015.04 1015.15 1015.10 1015.75 1015.27 1015.47 1016.00 1016.35 1016.67 1017.22 1017.61 1018.15 1018.60 1018.99 1019.33 1019.68 1019.87 1019.94 1020.00 1020.11 1020.35 1020.75 1021.10 1021.43
1020.41 1019.93 1019.46 1019.17 1017.71 1016.94 1017.13 1016.77 1016.52 1016.46 1016.22 1016.06 1016.23 1016.07 1016.16 1015.88 1015.70 1015.64 1015.64 1015.51 1015.50 1015.98 1015.63 1016.16 1016.84 1015.98 1016.30 1016.83 1017.11 1017.51 1017.92 1018.46 1018.96 1019.33 1019.70 1020.08 1020.12 1020.25 1020.48 1020.60 1020.61 1020.74 1021.05 1021.35
1019.02 1019.02 1018.38 1017.84 1016.55 1016.86 1016.44 1015.97 1015.83 1015.85 1015.92 1016.04 1016.05 1016.13 1015.87 1015.77 1015.64 1015.66 1015.95 1015.57 1015.91 1016.28 1016.94 1016.88 1016.91 1016.88 1016.80 1017.19 1017.69 1018.20 1018.51 1018.90 1019.25 1019.64 1019.96 1020.16 1020.38 1020.46 1020.56 1020.82 1021.02 1020.97 1021.13 1021.25
1017.89 1017.18 1017.30 1016.08 1015.50 1015.78 1014.92 1015.00 1015.17 1015.61 1015.55 1015.64 1015.95 1015.81 1015.50 1015.59 1015.32 1015.56 1015.78 1015.79 1015.88 1016.60 1016.65 1017.27 1017.32 1017.16 1017.08 1017.39 1017.83 1018.38 1018.90 1019.23 1019.39 1019.66 1020.01 1020.08 1020.22 1020.48 1020.65 1020.82 1021.02 1021.30 1021.46 1021.68
Thickness
5542 5544 5543 5572 5575 5584 5597 5604 5610 5609 5615 5625 5638 5650 5661 5663 5664 5672 5680 5686 5690 5691 5693 5692 5693 5695 5695 5696 5696 5696 5696 5695 5693 5689 5686 5685 5686 5686 5686 5685 5683 5680 5678 5676
5537 5546 5550 5552 5561 5570 5578 5586 5592 5592 5602 5611 5618 5637 5651 5652 5662 5669 5675 5679 5684 5687 5685 5687 5687 5688 5688 5690 5691 5690 5690 5689 5688 5687 5685 5685 5686 5687 5686 5684 5680 5677 5675 5673
5534 5539 5546 5548 5555 5564 5569 5575 5579 5586 5589 5595 5604 5627 5642 5649 5652 5660 5666 5673 5676 5677 5680 5680 5678 5680 5679 5680 5680 5680 5680 5680 5681 5681 5680 5678 5677 5678 5676 5675 5674 5673 5670 5668
5527 5533 5539 5540 5549 5562 5561 5570 5574 5576 5583 5594 5590 5620 5631 5637 5644 5649 5662 5666 5670 5671 5668 5669 5671 5673 5672 5670 5668 5670 5670 5670 5671 5671 5672 5673 5673 5673 5674 5672 5671 5669 5666 5663
5521 5526 5531 5535 5543 5556 5552 5557 5560 5563 5570 5575 5583 5593 5640 5620 5638 5651 5652 5654 5659 5660 5661 5662 5660 5663 5660 5658 5659 5660 5662 5661 5660 5662 5663 5664 5663 5664 5664 5662 5660 5660 5658 5655
5517 5522 5528 5534 5539 5548 5550 5548 5551 5556 5562 5563 5576 5579 5625 5624 5631 5633 5635 5640 5640 5644 5648 5648 5646 5647 5648 5647 5648 5649 5651 5651 5650 5651 5651 5652 5652 5652 5653 5653 5652 5650 5648 5645
5510 5514 5518 5526 5528 5537 5548 5539 5530 5536 5544 5563 5551 5561 5600 5613 5618 5619 5626 5628 5629 5629 5634 5637 5638 5639 5638 5638 5638 5639 5639 5639 5639 5639 5640 5639 5639 5639 5640 5641 5641 5640 5638 5634
5507 5506 5517 5523 5527 5532 5532 5538 5530 5531 5540 5548 5538 5563 5592 5601 5602 5605 5608 5613 5617 5619 5622 5624 5626 5628 5628 5626 5626 5626 5626 5624 5624 5625 5625 5625 5626 5626 5625 5625 5626 5625 5623 5620
5500 5506 5510 5514 5520 5525 5523 5530 5531 5509 5483 5514 5549 5568 5580 5594 5593 5590 5595 5599 5605 5607 5608 5610 5611 5612 5615 5615 5613 5612 5611 5610 5608 5608 5609 5608 5609 5610 5609 5607 5608 5608 5604 5600
5496 5502 5503 5509 5514 5516 5523 5522 5500 5497 5510 5518 5543 5543 5566 5583 5576 5580 5585 5586 5590 5591 5591 5594 5597 5597 5596 5597 5595 5595 5594 5594 5592 5591 5592 5591 5590 5591 5590 5589 5587 5587 5584 5583
5487 5490 5497 5506 5508 5512 5511 5514 5512 5510 5507 5523 5530 5555 5571 5572 5564 5564 5569 5570 5572 5575 5578 5581 5582 5582 5581 5580 5580 5579 5578 5577 5576 5574 5574 5574 5572 5573 5573 5571 5569 5568 5567 5566
5462 5475 5484 5499 5495 5498 5509 5510 5514 5506 5498 5507 5510 5547 5570 5560 5552 5550 5554 5558 5559 5558 5561 5565 5565 5565 5565 5566 5566 5566 5564 5564 5562 5560 5559 5560 5558 5557 5557 5557 5556 5553 5553 5550
5452 5465 5484 5480 5482 5490 5493 5498 5502 5499 5493 5500 5506 5546 5546 5547 5546 5543 5542 5544 5545 5546 5547 5549 5550 5552 5554 5554 5553 5554 5553 5552 5550 5548 5548 5546 5544 5543 5544 5543 5541 5539 5538 5535
5452 5448 5457 5475 5469 5465 5477 5485 5490 5495 5491 5505 5521 5532 5539 5544 5539 5541 5540 5536 5536 5536 5538 5540 5542 5545 5545 5544 5546 5545 5544 5543 5540 5538 5537 5535 5534 5533 5532 5529 5527 5526 5523 5520
5450 5445 5448 5462 5466 5462 5472 5474 5476 5478 5493 5487 5527 5522 5531 5528 5526 5531 5535 5529 5527 5529 5531 5533 5534 5536 5536 5536 5536 5536 5536 5533 5531 5529 5527 5526 5523 5521 5519 5516 5513 5510 5507 5505
5433 5432 5424 5430 5447 5450 5451 5472 5476 5483 5486 5494 5499 5517 5517 5517 5519 5518 5517 5515 5520 5532 5537 5528 5527 5527 5528 5529 5530 5526 5525 5523 5520 5518 5516 5513 5510 5507 5505 5502 5498 5496 5493 5490
5422 5410 5411 5435 5418 5425 5438 5459 5469 5480 5482 5486 5490 5521 5512 5509 5505 5506 5511 5516 5522 5526 5524 5520 5522 5524 5523 5522 5520 5519 5516 5512 5509 5507 5504 5502 5499 5496 5494 5490 5486 5483 5479 5475
5413 5409 5407 5415 5399 5416 5462 5455 5459 5463 5474 5478 5485 5505 5502 5494 5491 5503 5507 5506 5511 5514 5516 5517 5519 5520 5518 5514 5511 5507 5503 5500 5498 5495 5492 5488 5486 5485 5481 5477 5474 5470 5467 5463
5415 5414 5403 5401 5400 5412 5443 5466 5452 5450 5475 5482 5480 5489 5481 5472 5475 5494 5493 5499 5504 5508 5511 5512 5512 5511 5508 5504 5500 5495 5492 5489 5487 5484 5481 5477 5474 5472 5468 5465 5462 5457 5453 5448
5394 5405 5398 5371 5391 5396 5446 5449 5441 5436 5437 5470 5465 5467 5461 5456 5469 5489 5480 5482 5487 5492 5495 5498 5499 5497 5495 5490 5485 5483 5480 5477 5473 5470 5466 5461 5458 5457 5455 5452 5447 5442 5438 5434
5375 5384 5387 5392 5383 5389 5441 5438 5425 5418 5446 5447 5444 5447 5444 5449 5456 5468 5469 5468 5471 5473 5474 5481 5481 5482 5480 5473 5470 5468 5466 5463 5458 5454 5451 5448 5446 5444 5443 5439 5434 5430 5426 5421
5389 5373 5383 5384 5378 5380 5434 5415 5420 5441 5436 5432 5434 5437 5435 5438 5439 5444 5451 5453 5458 5462 5460 5459 5464 5462 5457 5455 5455 5453 5452 5446 5443 5440 5437 5433 5431 5429 5427 5424 5419 5415 5412 5407
5391 5416 5403 5397 5410 5430 5417 5428 5428 5422 5427 5426 5424 5427 5424 5425 5430 5433 5437 5436 5440 5443 5442 5438 5446 5445 5442 5440 5440 5438 5436 5431 5428 5424 5421 5419 5416 5414 5412 5410 5406 5402 5396 5391
5389 5394 5396 5386 5418 5421 5411 5413 5413 5414 5417 5422 5418 5420 5415 5418 5420 5414 5416 5419 5422 5420 5427 5424 5421 5432 5431 5426 5424 5424 5421 5417 5413 5411 5407 5403 5402 5399 5396 5393 5391 5389 5384 5378
5403 5392 5392 5385 5412 5402 5405 5408 5411 5410 5411 5409 5409 5406 5410 5410 5408 5408 5405 5410 5408 5407 5402 5405 5408 5409 5414 5412 5409 5406 5404 5402 5401 5397 5393 5391 5388 5385 5382 5378 5374 5372 5367 5363
5394 5405 5394 5401 5416 5404 5419 5416 5409 5404 5406 5407 5403 5403 5402 5400 5404 5401 5400 5400 5401 5392 5393 5391 5394 5397 5401 5398 5396 5392 5389 5387 5387 5385 5380 5379 5376 5372 5369 5366 5361 5355 5350 5345